INMARSAT 5-F3

Last updated on Sat Jun 14 2025 00:02:46 GMT+0000 (Coordinated Universal Time)

1 40882U 15042A 25164.55705861 .00000065 00000+0 00000+0 0 9998 2 40882 0.0355 98.7887 0000312 310.0480 233.4031 1.00271226 35865
UTC large
Height (km)
Speed (km/s)
/
Latitude / Longitude
Inclination (degrees)
Orbital Period (minutes)
Azimuth
Elevation
Range (km)
Doppler Factor

Next 0 passes for location: London (51.5072 / 0.1276)

Sorry there are no passes over London.